EW5485 Weather Reports


time (UTC)temp
C
wind
direction
speed
KPH
gust
KPH
rain 1hr
cm
rain 24hr
cm
rain mn
cm
humidity
%
barometer
mb
20260510011544 8 169 0.0 4.8 0.05 0.05 0.05 93 998.0
20260510010039 8 176 0.0 4.8 0.03 0.03 0.03 90 997.9
20260510004538 8 173 3.2 17.7 0.03 0.03 0.03 91 997.8
20260510003038 8 207 0.0 4.8 0.03 0.03 0.03 92 998.0
20260510001538 8 218 6.4 17.7 0.00 0.00 0.00 91 997.8
20260510000044 9 209 4.8 11.3 0.00 0.00 0.00 90 997.4
20260509234529 8 163 8.0 19.3 0.00 0.00 0.00 90 997.1
20260509233026 9 164 14.5 27.4 0.00 0.00 0.00 89 997.1
20260509231523 10 167 8.0 20.9 0.00 0.00 0.00 90 997.0
20260509230020 10 155 14.5 24.1 0.00 0.00 0.00 87 996.6
20260509224517 10 124 1.6 14.5 0.00 0.00 0.00 87 996.5
20260509223016 10 191 6.4 16.1 0.00 0.00 0.00 89 996.2
20260509221515 11 169 9.7 17.7 0.00 0.00 0.00 88 995.3
20260509220017 11 174 8.0 22.5 0.00 0.00 0.00 89 994.7
20260509214509 11 161 11.3 24.1 0.00 0.00 0.00 90 994.4
20260509213008 11 191 11.3 27.4 0.00 0.00 0.00 87 994.0
20260509211501 12 148 4.8 16.1 0.00 0.00 0.00 73 993.5
20260509210107 13 171 0.0 4.8 0.00 0.00 0.00 65 992.8
20260509204555 12 144 0.0 3.2 0.00 0.00 0.00 65 992.1
20260509203102 12 126 0.0 1.6 0.00 0.00 0.00 65 991.7
20260509201552 12 247 0.0 3.2 0.00 0.00 0.00 61 991.6
20260509200054 11 278 0.0 1.6 0.00 0.00 0.00 64 991.1
20260509194552 12 279 0.0 1.6 0.00 0.00 0.00 59 990.8
20260509193056 13 279 0.0 1.6 0.00 0.00 0.00 54 990.6
20260509191600 15 308 1.6 8.0 0.00 0.00 0.00 51 990.4
20260509190054 15 313 6.4 16.1 0.00 0.00 0.00 52 990.1
20260509184558 14 346 4.8 11.3 0.00 0.00 0.00 54 989.9
20260509183056 14 321 4.8 11.3 0.00 0.00 0.00 54 989.8
20260509181547 14 347 8.0 14.5 0.00 0.00 0.00 53 989.6
20260509180046 15 346 9.7 17.7 0.00 0.00 0.00 51 989.4
20260509174600 15 347 8.0 22.5 0.00 0.00 0.00 50 989.4
20260509173050 15 345 6.4 14.5 0.00 0.00 0.00 51 989.2
20260509171544 15 310 8.0 19.3 0.00 0.00 0.00 48 989.1
20260509170042 15 313 12.9 20.9 0.00 0.00 0.00 48 988.9
20260509164538 13 344 8.0 16.1 0.00 0.00 0.00 53 989.0
20260509163040 12 360 4.8 8.0 0.00 0.00 0.00 60 989.0
20260509161535 12 358 4.8 8.0 0.00 0.00 0.00 61 988.8
20260509160034 13 6 4.8 11.3 0.00 0.00 0.00 59 989.1
20260509154533 13 341 8.0 20.9 0.00 0.00 0.00 56 989.0
20260509153043 13 347 11.3 19.3 0.00 0.00 0.00 57 989.1
20260509151529 13 317 6.4 17.7 0.00 0.00 0.00 59 989.2
20260509150026 13 351 11.3 17.7 0.00 0.00 0.00 59 989.4
20260509144530 12 342 8.0 16.1 0.00 0.00 0.00 61 989.4
20260509143022 13 329 8.0 24.1 0.00 0.00 0.00 59 989.6
20260509141518 12 349 11.3 20.9 0.00 0.00 0.00 61 990.0
20260509140015 12 13 6.4 14.5 0.00 0.00 0.00 63 990.4
20260509134513 11 354 8.0 14.5 0.00 0.00 0.00 64 990.3
20260509133012 11 3 6.4 12.9 0.00 0.00 0.00 64 990.7
20260509131513 11 18 4.8 11.3 0.00 0.00 0.00 63 990.6
20260509130022 11 358 3.2 6.4 0.00 0.00 0.00 66 990.7
20260509124508 11 343 3.2 8.0 0.00 0.00 0.00 64 991.0
20260509123005 12 12 3.2 9.7 0.00 0.00 0.00 61 991.2
20260509121505 12 344 4.8 12.9 0.00 0.00 0.00 60 991.4
20260509120100 11 8 6.4 12.9 0.00 0.00 0.00 65 991.6
20260509114603 10 19 3.2 6.4 0.00 0.00 0.00 68 991.5
20260509113059 11 33 3.2 4.8 0.00 0.00 0.00 59 991.7
20260509111552 11 331 1.6 4.8 0.00 0.00 0.00 61 991.7
20260509110050 11 340 1.6 4.8 0.00 0.00 0.00 61 991.7
20260509104551 11 328 3.2 6.4 0.00 0.00 0.00 59 991.8
20260509103059 11 338 1.6 6.4 0.00 0.00 0.00 59 991.6
20260509101600 12 325 3.2 12.9 0.00 0.00 0.00 59 991.5
20260509100047 11 13 4.8 11.3 0.00 0.00 0.00 60 991.5
20260509094556 11 337 3.2 9.7 0.00 0.00 0.00 58 991.3
20260509093049 12 333 4.8 9.7 0.00 0.00 0.00 57 991.3
20260509091548 12 345 4.8 8.0 0.00 0.00 0.00 58 991.2
20260509090057 12 346 3.2 12.9 0.00 0.03 0.00 59 991.1
20260509084548 12 349 4.8 9.7 0.00 0.03 0.00 59 991.1
20260509083054 12 20 4.8 8.0 0.00 0.03 0.00 58 990.9
20260509081543 12 348 3.2 8.0 0.00 0.03 0.00 57 990.9
20260509080046 12 330 4.8 11.3 0.00 0.03 0.00 58 991.0
20260509074546 12 360 8.0 14.5 0.00 0.03 0.00 58 990.7
20260509073042 12 350 4.8 14.5 0.00 0.03 0.00 58 990.6
20260509071544 13 12 9.7 19.3 0.00 0.03 0.00 57 990.2
20260509070042 12 334 8.0 17.7 0.00 0.03 0.00 57 989.8
20260509064539 12 336 1.6 8.0 0.00 0.03 0.00 59 989.8
20260509063038 10 9 0.0 1.6 0.00 0.03 0.00 65 989.8
20260509061537 12 10 0.0 6.4 0.00 0.03 0.00 60 989.6
20260509060040 12 356 3.2 9.7 0.00 0.05 0.00 59 989.5
20260509054535 12 347 4.8 9.7 0.00 0.05 0.00 60 989.5
20260509053056 12 355 4.8 9.7 0.00 0.05 0.00 62 989.4
20260509051541 13 333 3.2 12.9 0.00 0.05 0.00 61 989.5
20260509050032 14 64 3.2 8.0 0.00 0.30 0.00 60 989.6
20260509044532 15 358 1.6 9.7 0.00 0.30 0.00 61 989.5
20260509043031 16 43 1.6 12.9 0.00 0.30 0.00 64 989.4
20260509041529 16 335 1.6 8.0 0.00 0.30 0.00 74 989.7
20260509040031 16 61 1.6 6.4 0.00 0.43 0.00 73 989.7
20260509034530 16 155 0.0 6.4 0.00 0.43 0.00 74 989.7
20260509033026 16 42 1.6 8.0 0.00 0.43 0.00 74 989.7
20260509031530 16 98 4.8 12.9 0.00 0.43 0.00 74 989.8
20260509030040 16 149 3.2 17.7 0.00 0.51 0.00 75 989.8
20260509024520 16 85 6.4 12.9 0.00 0.51 0.00 73 989.8
20260509023022 16 20 4.8 16.1 0.00 0.51 0.00 74 989.9
20260509021526 15 60 6.4 16.1 0.00 0.51 0.00 75 989.8
20260509020017 16 107 8.0 17.7 0.00 0.51 0.00 75 989.6
20260509014516 16 69 4.8 11.3 0.00 0.51 0.00 75 989.9
20260509013015 15 71 1.6 11.3 0.00 0.51 0.00 75 990.4